Regional Weather Roundup
Issued by NWS Wakefield, VA

Home | Current Version | Previous Version | Text Only | Print | Product List | Glossary Off
Versions: 1 2 3 4 5 6 7 8 9 10 11 12 13 14 15 16 17 18 19 20 21 22 23 24 25 26 27

000
ASUS41 KAKQ 201715
RWRAKQ

REGIONAL WEATHER ROUNDUP
NATIONAL WEATHER SERVICE WAKEFIELD VA
1200 PM EST TUE FEB 20 2018

Note: "fair" indicates few or no clouds below 12,000 feet with no
significant weather and/or obstructions to visibility. * = Denotes
station may not report precipitation (e.g., rain,snow,etc.),
thunder or fog.

VAZ042-051-052>054-056-201800-
NORTHERN VIRGINIA

CITY           SKY/WX    TMP DP  RH WIND       PRES   REMARKS
WASH NATIONAL  PTSUNNY   68  58  70 S12       30.35F
DULLES         FAIR      69  58  67 SW15G24   30.34F
FORT BELVOIR   FAIR      71  58  64 S8        30.35F
QUANTICO       NOT AVBL
FREDERICKSBRG* FAIR      70  60  70 SW13G22   30.37F
STAFFORD*      FAIR      71  61  70 SW14      30.41F
WARRENTON      FAIR      73  55  53 SW15G22   30.35F
CULPEPER*      FAIR      72  56  57 SW13G21   30.37F
MANASSAS*      FAIR      73  60  63 SW13G18   30.35F
LEESBURG*      FAIR      68  55  64 S13       30.34F
WINCHESTER     FAIR      70  54  56 SW12      30.32F
FRONT ROYAL*   FAIR      75  55  50 SW9       30.30F
LURAY*         FAIR      73  55  53 S14G22    30.33F
$$

VAZ048-049-060>072-079>083-201800-
CENTRAL AND SOUTH CENTRAL VIRGINIA

CITY           SKY/WX    TMP DP  RH WIND       PRES   REMARKS
RICHMOND       FAIR      71  61  70 S14G25    30.42F
CHESTERFIELD*  PTSUNNY   72  61  68 W9        30.42F
PETERSBURG*    NOT AVBL
HANOVER        FAIR      70  60  70 SW9       30.42F
TAPPAHANNOCK*  FAIR      67  61  80 SW8       30.42F
QUINTON*       PTSUNNY   66  61  85 S9G18     30.43F
CHARLOTTSVILLE FAIR      73  57  57 S17       30.36F
GORDONSVILLE*  FAIR      71  60  68 S10G20    30.36F
ORANGE*        FAIR      70  57  64 SW14G23   30.36F
LOUISA*        FAIR      68  58  71 S12G17    30.43F
BUMPASS*       FAIR      67  59  76 SW9G18    30.40F
FARMVILLE*     FAIR      72  64  76 SW14G22   30.40F
CREWE*         FAIR      71  65  79 SW7       30.42F
FORT PICKETT*  PTSUNNY   71  65  82 SW10G16   30.43F
CHASE CITY*    CLOUDY    65  65  99 SW6       30.45F
CLARKSVILLE*   CLOUDY    64  63  94 S6        30.45F
SOUTH HILL*    CLOUDY    61  61 100 SW6       30.51F
LAWRENCEVILLE* CLOUDY    61  60  97 SW5       30.45F
EMPORIA*       CLOUDY    59  59 100 SE3       30.48S FOG
$$

VAZ088>098-201800-
SOUTHEAST VIRGINIA

CITY           SKY/WX    TMP DP  RH WIND       PRES   REMARKS
NORFOLK        CLOUDY    66  66 100 SW8       30.45F FOG
VIRGINIA BEACH CLOUDY    70  64  81 SW12      30.44F
NORFOLK NAVAL  CLOUDY    64  62  93 SW6       30.46F FOG
WEST POINT*    CLOUDY    62  59  89 S7        30.46F
SALUDA*        CLOUDY    64  63  96 S8        30.44F
NEWPORT NEWS   CLOUDY    62  60  93 SW6       30.45F
LANGLEY AFB    CLOUDY    62  62 100 SW9       30.45F FOG
FORT EUSTIS    FOG       61  61 100 S3        30.43F VSB 1
WILLIAMSBURG*  CLOUDY    61  61 100 CALM      30.46F
HR EXEC AP*    CLOUDY    64  64 100 SW3       30.46F FOG
FRANKLIN*      FOG       59  59  98 SW5       30.47F VSB 1/2
US460-WAKEFLD  CLOUDY    62  61  96 SW6       30.46F
$$

VAZ020-022-025-037-045-201800-
WEST CENTRAL AND SOUTHWEST VIRGINIA

CITY           SKY/WX    TMP DP  RH WIND       PRES   REMARKS
STAUNTON*      FAIR      71  55  55 SW13G18   30.38F
WAYNESBORO*    FAIR      73  54  52 SW12G22   30.37F
HOT SPRINGS VA FAIR      61  51  69 S5        30.44F
LYNCHBURG      PTSUNNY   69  58  67 S18       30.41F
DANVILLE       CLOUDY    61  59  93 SW8       30.45F
SOUTH BOSTON*  CLOUDY    66  61  85 SW8       30.45F
MARTINSVILLE   CLOUDY    57  54  89 CALM      30.47F
ROANOKE        FAIR      66  57  72 CALM      30.42F
BLACKSBURG     FAIR      70  54  57 SW9       30.43F
DUBLIN*        FAIR      71  53  53 S12G22    30.41F
MARION*        FAIR      73  46  39 W7        30.41F
HILLSVILLE*    PTSUNNY   63  55  73 S18G26    30.43S
RICHLANDS*     FAIR      69  49  49 S7G16     30.39S
WISE*          FAIR      68  52  56 S13G23    30.38F
ABINGDON*      FAIR      74  52  46 W12G18    30.37F
$$

MDZ021>025-VAZ099-100-201800-
SOUTHERN MARYLAND AND THE DELMARVA PENINSULA

CITY           SKY/WX    TMP DP  RH WIND       PRES   REMARKS
PATUXENT RIVER MOSUNNY   65  59  81 SW15G21   30.39F
BAY BRIDGE APT FAIR      64  57  77 S14       30.35F
LEONARDTOWN    PTSUNNY   63  57  82 SW13G22   30.41F
DOVER          MOSUNNY   69  59  70 SW15      30.35F
GEORGETOWN     FAIR      68  59  73 SW21      30.38F
EASTON         MOSUNNY   66  57  72 SW15G21   30.41F
CAMBRIDGE      MOSUNNY   63  59  88 S9G22     30.38F
SALISBURY      CLOUDY    63  60  90 SW14G21   30.41F
OCEAN CITY     CLOUDY    59  57  93 VRB6G18   30.43F
WALLOPS ISLAND PTSUNNY   68  63  84 W15G22    30.43F
ACCOMACK*      CLOUDY    65  63  91 SW9       30.45F
$$

NCZ012>017-030>032-201800-
NORTH CENTRAL AND EASTERN NORTH CAROLINA

CITY           SKY/WX    TMP DP  RH WIND       PRES   REMARKS
ROANOKE RAPIDS CLOUDY    61  61 100 S3        30.47F FOG
RALEIGH        FOG       60  60 100 SW5       30.47F VSB 1/4
ELIZABETH CITY PTSUNNY   73  68  84 S13       30.47F
AHOSKIE*       CLOUDY    62  62 100 S3        30.47F FOG
EDENTON*       CLOUDY    73  68  85 S3        30.48F
CURRITUCK*     CLOUDY    68  62  80 SW8       30.47F
KILL DEVIL HLS CLOUDY   N/A N/A N/A CALM      30.47F
MANTEO         CLOUDY    61  60  96 SW6       30.49F
CAPE HATTERAS  CLOUDY    72  66  81 S8        30.50F
TARBORO*       NOT AVBL
GOLDSBORO      FAIR      75  65  70 S9        30.44F
WASHINGTON     CLOUDY    75  66  73 SW7       30.47F
GREENVILLE     FAIR      73  64  73 SW7       30.47S
NEW BERN       CLOUDY    77  66  68 S10       30.47F
WILMINGTON     FAIR      77  65  66 S9        30.46F
$$

VAZ048-201800-
ELSEWHERE

CITY           SKY/WX    TMP DP  RH WIND       PRES   REMARKS
HARRISBURG PA  FAIR      54  49  83 CALM      30.30F
BALTIMORE      FAIR      69  58  67 SW12G17   30.33F
ANNAPOLIS      FAIR      52  50  93 E13       30.34F
ANDREWS AFB    MOSUNNY   72  58  62 SW17G25   30.34F
PHILADELPHIA   CLOUDY    57  55  93 SW12      30.36F
HENDERSON NC   CLOUDY    60  58  91 SW6       30.46F
GREENSBORO     CLOUDY    61  61 100 SW6       30.44F
ROCKY MOUNT    CLOUDY    64  62  93 VRB3      30.47F FOG
$$

VAZ100-201800-
MARINE

STATION/POSITION TIME  TEMP    WIND        PRES    WAVE   SWELL
                       AIR SEA DIR/SP/G            HT/PER HT/PER
                 (UTC) (F)     (DEG/KT/KT) (MB)    (FT/S) (FT/S)
BRANDYWINE LGT   1642   58     230/ 19/ 22 1028.9F
CAPE MAY NJ      1648   59 42  220/ 15/ 20 1028.1F
LEWES DE         1648   67 41  230/ 14/ 21 1028.7F
15NM E FENWICK I 1650   47 43  190/ 10/ 12 1030.8F   4/11   3/11
OCEAN-CITY-INLET 1648   45 41  210/  9/ 11 1030.8F
WACHAPREAGUE VA  1648   57 47  200/  6/  9 1031.1F
THOMAS POINT MD  1700   52 39  170/ 15/ 16   N/A
GOOSES REEF MD   1700   51 40  210/ 10/ 12 1029.2
COVE POINT MD    1648   62     230/ 14/ 20 1029.7F
SOLOMONS ISLAND  1648   60 42  220/ 16/ 22 1028.9F
BISHOPS HEAD MD  1648   53 48  210/  9/ 12 1030.4F
PINEY POINT MD   1636          250/  5/  8   N/A
POTOMAC MD       1700   52 43   20/ 10/ 12 1029.3
CAMBRIDGE MD     1648   65 44              1029.5F
LEWISETTA VA     1648   61 46  240/ 16/ 20 1029.7F
RAPPAHANNOCK LGT 1648          190/ 14/ 15 1031.7F
STINGRAY PT      1700   53 43  230/ 10/ 12 1032.9    0
YORK RVR RNG VA  1648   53     170/  6/  7 1031.7F
YORKTOWN VA      1648   61 44  230/  5/  7 1030.8F
DOMINION TERM VA 1648   58      CALM  /  1 1031.7F
KIPTOPEKE VA     1648      43  270/  2/  3   N/A
CAPE HENRY VA    1648   53      40/  2/  5   N/A
S CRANEY ISL VA  1648   56        CALM     1031.4F
CAPE HENRY BUOY  1700      45                N/A     3/ 6   2/11
1ST LANDING BUOY 1700   48 42  120/  4/  4 1031.4    1/ 4
CAPE CHARLES BUO 1651      46                N/A     2/11   2/11
64NM E OF VA BCH 1650   54 50  200/  8/  8 1032.9F   4/12   3/12
DUCK PIER NC     1648   66 45  180/  3/  4 1031.8F
44100 DUCK FRF   1645      46                N/A     4/13   2/13
44056 DUCK FRF   1700      46                N/A     3/13   2/13
OREGON INLET NC  1636   64 52  170/  9/ 12 1032.6F
HATTERAS NC      1648   71 57  170/  6/  8 1032.7F
DIAMOND SHLS NC  1650   73 72  170/ 12/ 14 1033.2F   4/11   3/11
CAPE LOOKOUT NC  1700          170/  9/ 10 1032.6F
$$




USA.gov is the U.S. government's official web portal to all federal, state and local government web resources and services.